カタログに戻る

STARLINK-37334

運用中通信VLEO
NORAD 68700·PAYLOAD·🇺🇸 United States

打ち上げ Apr 14, 2026 から Cape Canaveral Space Force Station

Loading…

次のパス (今後24時間)

TLE

最新Source: CelesTrak SupGP

元期: Sep 14, 2026, 22:57 UTC

1 68700C 26081B   26257.95673611  .00019278  00000+0  56943-3 0  2571
2 68700  53.1575 231.9520 0001457 101.4805 234.1777 15.34389465    17

AllMySatでSTARLINK-37334をリアルタイム追跡

Download on the App Store